Sunshine Coast Airport Observation History
Time Wind Speed Temp Pressure Rel. Hum Rain
12/09:30pm N 9-12 kts 24.8°c 1011.0 hPa 81% 0.0mm
12/09:00pm N 7-9 kts 24.8°c 1011.1 hPa 80% 0.0mm
12/08:30pm N 13-18 kts 25.3°c 1010.4 hPa 77% 0.0mm
12/08:00pm N 14-19 kts 25.3°c 1010.2 hPa 74% 0.0mm
12/07:30pm N 8-11 kts 25.2°c 1010.6 hPa 79% 0.0mm
12/07:10pm NNE 13-23 kts 25.4°c 1009.3 hPa 79% 0.0mm
12/07:00pm N 9-18 kts 25.4°c 1010.3 hPa 79% 0.0mm
12/06:30pm NNE 14-20 kts 25.5°c 1009.5 hPa 79% 0.0mm
12/06:00pm NNE 13-16 kts 25.7°c 1009.4 hPa 77% 0.0mm
12/05:30pm NNE 13-19 kts 25.8°c 1009.2 hPa 77% 0.0mm
12/05:00pm NNE 16-19 kts 26.0°c 1008.4 hPa 77% 0.0mm
12/04:30pm NNE 15-19 kts 26.2°c 1008.4 hPa 75% 0.0mm
12/04:00pm NNE 17-20 kts 26.5°c 1008.2 hPa 74% 0.0mm
12/03:36pm NNE 16-20 kts 26.8°c 1008.2 hPa 73% 0.0mm
12/03:30pm NE 17-21 kts 26.9°c 1008.2 hPa 71% 0.0mm
12/03:17pm NE 17-21 kts 28.5°c 1008.2 hPa 68% 0.0mm
12/03:00pm NE 17-23 kts 28.2°c 1008.4 hPa 65% 0.0mm
12/02:30pm NE 18-22 kts 28.3°c 1008.5 hPa 70% 0.0mm
12/02:00pm NE 18-22 kts 29.0°c 1008.7 hPa 66% 0.0mm
12/01:30pm NE 15-21 kts 28.5°c 1008.8 hPa 69% 0.0mm
12/01:00pm NE 16-20 kts 28.6°c 1008.9 hPa 68% 0.0mm
12/12:30pm NE 16-19 kts 28.8°c 1009.3 hPa 70% 0.0mm
12/12:00pm NE 16-20 kts 28.5°c 1009.7 hPa 69% 0.0mm
12/11:30am NE 16-19 kts 28.7°c 1010.0 hPa 68% 0.0mm
12/11:00am NE 13-16 kts 29.3°c 1010.4 hPa 69% 0.0mm
12/10:30am NE 12-16 kts 28.6°c 1010.7 hPa 68% 0.0mm
12/10:00am ENE 12-15 kts 27.9°c 1010.9 hPa 69% 0.0mm
12/09:30am N 8-12 kts 30.1°c 1010.6 hPa 56% 0.0mm
12/09:00am N 7-11 kts 27.2°c 1010.8 hPa 64% 0.0mm
12/08:30am NW 4-6 kts 26.1°c 1010.9 hPa 70% 0.0mm
12/08:00am WNW 6-9 kts 25.3°c 1011.0 hPa 73% 0.0mm
12/07:30am NW 6-8 kts 25.4°c 1010.6 hPa 75% 0.0mm
12/07:00am NNW 9-12 kts 24.6°c 1010.2 hPa 78% 0.0mm
12/06:30am N 8-11 kts 24.5°c 1010.0 hPa 80% 0.0mm
12/06:00am N 5-6 kts 22.9°c 1009.8 hPa 88% 0.0mm
12/05:30am E 2-6 kts 23.3°c 1009.9 hPa 87% 0.0mm
12/05:00am SE 7-8 kts 22.7°c 1009.7 hPa 85% 0.0mm
12/04:30am WSW 3-8 kts 22.4°c 1009.5 hPa 85% 0.0mm
12/04:01am WNW 4-6 kts 21.9°c 1008.9 hPa 84% 0.0mm
12/04:00am WNW 4-6 kts 21.9°c 1008.9 hPa 84% 0.0mm
12/03:43am W 7-9 kts 22.0°c 1009.0 hPa 85% 0.0mm
12/03:30am W 8-9 kts 22.2°c 1009.3 hPa 86% 0.0mm
12/03:00am N 8-12 kts 23.9°c 1009.3 hPa 88% 0.0mm
12/02:30am NNE 9-14 kts 23.9°c 1010.0 hPa 85% 0.0mm
12/02:00am NE 13-17 kts 23.5°c 1010.3 hPa 86% 0.0mm
12/01:42am ENE 17-24 kts 23.0°c 1010.0 hPa 83% 0.0mm
12/01:30am E 10-14 kts 22.9°c 1011.9 hPa 84% 0.0mm
12/01:00am SSE 5-8 kts 22.5°c 1013.4 hPa 77% 0.0mm
12/12:30am SSE 11-16 kts 22.8°c 1014.1 hPa 75% 0.0mm
12/12:16am S 15-25 kts 23.4°c 1014.3 hPa 72% 0.0mm
12/12:07am S 12-25 kts 24.3°c 1014.7 hPa 72% 0.0mm
12/12:00am S 7-11 kts 24.9°c 1014.5 hPa 85% 0.0mm
Time Wind Speed Temp Pressure Rel. Hum Rain
11/11:30pm SW 4-5 kts 25.0°c 1014.4 hPa 84% 0.0mm
11/11:00pm WSW 3-5 kts 25.1°c 1014.2 hPa 83% 0.0mm
11/10:30pm NNE 9-13 kts 24.9°c 1012.8 hPa 85% 0.0mm
11/10:00pm N 9-13 kts 24.9°c 1012.8 hPa 84% 0.0mm
11/09:30pm N 13-17 kts 25.0°c 1012.1 hPa 84% 0.0mm
11/09:00pm NNE 12-15 kts 25.0°c 1012.0 hPa 84% 0.0mm
11/08:30pm NNE 14-20 kts 25.2°c 1011.2 hPa 84% 0.0mm
11/08:00pm N 15-21 kts 25.2°c 1011.5 hPa 83% 0.0mm
11/07:30pm N 14-19 kts 25.2°c 1011.9 hPa 83% 0.0mm
11/07:00pm NNE 15-19 kts 25.3°c 1011.5 hPa 83% 0.0mm
11/06:49pm NNE 16-22 kts 25.3°c 1011.3 hPa 83% 0.0mm
11/06:30pm NE 11-18 kts 25.3°c 1011.3 hPa 83% 0.0mm
11/06:23pm ENE 8-13 kts 25.5°c 1011.8 hPa 83% 0.0mm
11/06:00pm N 15-22 kts 24.8°c 1010.1 hPa 85% 0.0mm
11/05:30pm N 12-15 kts 25.4°c 1011.1 hPa 81% 0.0mm
11/05:00pm NNE 14-18 kts 25.5°c 1010.5 hPa 81% 0.0mm
11/04:30pm NNE 15-19 kts 25.7°c 1009.6 hPa 80% 0.0mm
11/04:00pm NNE 16-20 kts 26.1°c 1009.6 hPa 79% 0.0mm
11/03:30pm NNE 15-20 kts 26.6°c 1009.7 hPa 78% 0.0mm
11/03:00pm NNE 17-22 kts 26.9°c 1009.8 hPa 75% 0.0mm
11/02:30pm NNE 17-20 kts 28.8°c 1010.2 hPa 68% 0.0mm
11/02:00pm NE 16-20 kts 29.0°c 1010.5 hPa 70% 0.0mm
11/01:30pm NNE 16-20 kts 28.8°c 1010.9 hPa 67% 0.0mm
11/01:00pm NE 16-22 kts 28.6°c 1011.2 hPa 71% 0.0mm
11/12:30pm NE 16-19 kts 28.6°c 1011.6 hPa 70% 0.0mm
11/12:00pm NE 15-18 kts 28.7°c 1011.9 hPa 68% 0.0mm
11/11:30am NNE 13-18 kts 29.5°c 1012.4 hPa 61% 0.0mm
11/11:00am NE 13-15 kts 28.4°c 1012.9 hPa 70% 0.0mm
11/10:30am NE 13-15 kts 28.2°c 1013.3 hPa 69% 0.0mm
11/10:00am ENE 11-12 kts 28.1°c 1013.9 hPa 68% 0.0mm
11/09:30am ENE 10-11 kts 28.6°c 1014.2 hPa 71% 0.0mm
11/09:00am ENE 9-11 kts 27.7°c 1014.2 hPa 70% 0.0mm
11/08:30am NNW 7-11 kts 28.4°c 1014.3 hPa 62% 0.0mm
11/08:00am WNW 8-11 kts 27.4°c 1014.4 hPa 65% 0.0mm
11/07:30am NW 7-10 kts 26.9°c 1014.4 hPa 69% 0.0mm
11/07:00am NNW 6-8 kts 25.7°c 1014.0 hPa 75% 0.0mm
11/06:30am NW 6-7 kts 24.8°c 1013.7 hPa 81% 0.0mm
11/06:00am NW 5-6 kts 23.3°c 1013.2 hPa 89% 0.0mm
11/05:30am WNW 5-7 kts 22.0°c 1012.7 hPa 92% 0.0mm
11/05:00am NW 5-6 kts 21.4°c 1012.5 hPa 91% 0.0mm
11/04:30am NNW 5-7 kts 21.4°c 1012.1 hPa 90% 0.0mm
11/04:00am NNW 7-9 kts 22.0°c 1011.8 hPa 89% 0.0mm
11/03:30am NNW 8-10 kts 22.4°c 1011.6 hPa 89% 0.0mm
11/03:00am N 7-9 kts 22.4°c 1012.0 hPa 89% 0.0mm
11/02:30am N 6-7 kts 22.5°c 1012.6 hPa 88% 0.0mm
11/02:00am N 7-9 kts 22.5°c 1012.9 hPa 88% 0.0mm
11/01:30am NNW 5-6 kts 22.8°c 1013.8 hPa 87% 0.0mm
11/01:00am WNW 4 kts 24.1°c 1014.3 hPa 84% 0.0mm
11/12:30am NNW 5-7 kts 23.9°c 1014.4 hPa 85% 0.0mm
11/12:00am NNW 5-7 kts 23.7°c 1014.6 hPa 87% 0.0mm
Time Wind Speed Temp Pressure Rel. Hum Rain
10/11:30pm N 4-5 kts 23.3°c 1014.8 hPa 87% 0.0mm
10/11:00pm NNW 5-6 kts 22.7°c 1014.7 hPa 85% 0.0mm
10/10:30pm NNW 6-7 kts 23.6°c 1015.0 hPa 83% 0.0mm
10/10:00pm NNW 7-8 kts 23.4°c 1014.9 hPa 83% 0.0mm
10/09:30pm NNW 6-9 kts 23.9°c 1015.0 hPa 82% 0.0mm
10/09:00pm N 8-11 kts 24.4°c 1014.8 hPa 82% 0.0mm
10/08:30pm N 10-13 kts 24.6°c 1014.6 hPa 81% 0.0mm
10/08:00pm N 12-16 kts 24.8°c 1014.3 hPa 81% 0.0mm
10/07:30pm NNE 13-18 kts 24.9°c 1014.2 hPa 82% 0.0mm
10/07:00pm NNE 13-17 kts 25.0°c 1014.0 hPa 81% 0.0mm
10/06:30pm NNE 11-17 kts 25.1°c 1013.9 hPa 80% 0.0mm
10/06:00pm NNE 13-19 kts 25.5°c 1013.6 hPa 77% 0.0mm
10/05:30pm NNE 15-20 kts 26.2°c 1013.4 hPa 74% 0.0mm
10/05:00pm NNE 15-19 kts 26.8°c 1013.1 hPa 71% 0.0mm
10/04:30pm NNE 16-20 kts 27.3°c 1013.2 hPa 69% 0.0mm
10/04:00pm NNE 16-21 kts 27.8°c 1013.2 hPa 67% 0.0mm
10/03:30pm NNE 15-19 kts 28.1°c 1013.5 hPa 65% 0.0mm
10/03:00pm NE 15-18 kts 28.2°c 1013.7 hPa 63% 0.0mm
10/02:30pm NE 15-18 kts 28.2°c 1014.1 hPa 63% 0.0mm
10/02:00pm NE 15-18 kts 28.9°c 1014.6 hPa 65% 0.0mm
10/01:30pm NE 14-17 kts 28.6°c 1015.0 hPa 60% 0.0mm
10/01:27pm NE 14-17 kts 29.0°c 1015.1 hPa 59% 0.0mm
10/01:04pm NE 13-16 kts 29.4°c 1015.5 hPa 64% 0.0mm
10/01:00pm NE 13-16 kts 28.9°c 1015.5 hPa 65% 0.0mm
10/12:30pm NE 13-15 kts 28.4°c 1015.8 hPa 62% 0.0mm
10/12:00pm NE 13-17 kts 28.2°c 1016.3 hPa 65% 0.0mm
10/11:30am NE 13-17 kts 28.0°c 1016.7 hPa 67% 0.0mm
10/11:00am NE 13-15 kts 28.3°c 1017.0 hPa 65% 0.0mm
10/10:30am NE 12-15 kts 28.5°c 1017.4 hPa 69% 0.0mm
10/10:00am NE 11-15 kts 27.4°c 1017.5 hPa 69% 0.0mm
10/09:30am NE 12-14 kts 28.2°c 1017.6 hPa 69% 0.0mm
10/09:00am NE 10-12 kts 27.4°c 1017.7 hPa 69% 0.0mm
10/08:40am NE 7-9 kts 27.2°c 1017.9 hPa 72% 0.0mm
10/08:30am NE 8-11 kts 27.0°c 1018.0 hPa 72% 0.0mm
10/08:26am NE 7-9 kts 27.1°c 1018.0 hPa 72% 0.0mm
10/08:00am NW 6-8 kts 25.9°c 1018.2 hPa 73% 0.0mm
10/07:30am WNW 4-6 kts 25.2°c 1018.3 hPa 81% 0.0mm
10/07:00am W 3-4 kts 23.2°c 1018.2 hPa 94% 0.0mm
10/06:30am W 4-5 kts 22.4°c 1018.1 hPa 99% 0.0mm
10/06:00am WNW 3-4 kts 21.6°c 1017.8 hPa 99% 0.0mm
10/05:30am WNW 3-4 kts 20.7°c 1017.7 hPa 99% 0.0mm
10/05:00am WNW 3-4 kts 20.8°c 1017.5 hPa 99% 0.0mm
10/04:30am WNW 3-4 kts 20.9°c 1017.4 hPa 99% 0.0mm
10/04:00am WNW 4-5 kts 20.9°c 1017.3 hPa 99% 0.0mm
10/03:50am WNW 4-5 kts 20.9°c 1017.3 hPa 99% 0.0mm
10/03:33am WNW 4-5 kts 20.4°c 1017.2 hPa 98% 0.0mm
10/03:30am WNW 4-5 kts 20.4°c 1017.2 hPa 98% 0.0mm
10/03:27am WNW 4-5 kts 20.4°c 1017.2 hPa 98% 0.0mm
10/03:01am CALM 0 kts 20.1°c 1017.1 hPa 99% 0.0mm
10/03:00am CALM 0 kts 20.4°c 1017.1 hPa 99% 0.0mm
10/02:51am CALM 0 kts 20.8°c 1017.0 hPa 98% 0.0mm
10/02:30am CALM 0 kts 20.6°c 1017.0 hPa 98% 0.0mm
10/02:14am WNW 2-3 kts 20.7°c 1017.1 hPa 99% 0.0mm
10/02:00am WNW 3-4 kts 21.4°c 1017.1 hPa 99% 0.0mm
10/01:30am WNW 4-5 kts 21.3°c 1017.3 hPa 99% 0.0mm
10/01:16am NW 4-5 kts 21.1°c 1017.3 hPa 98% 0.0mm
10/01:00am NW 5-6 kts 20.3°c 1017.4 hPa 97% 0.0mm
10/12:30am WNW 4-5 kts 20.5°c 1017.7 hPa 96% 0.0mm
10/12:16am WNW 4-5 kts 20.7°c 1017.9 hPa 97% 0.0mm
10/12:00am WNW 4-5 kts 21.1°c 1018.1 hPa 96% 0.0mm